[[{"header":{"parameterUnit":"m.s-1","parameterCategory":1,"la1":30.2991,"la2":30.254,"lo1":-89.0895,"lo2":-89.0444,"dy":0.0017,"dx":0.0017,"nx":28,"ny":28,"refTime":"2025-01-07T03:00:00:Z","depth":0,"parameterNumber":2,"parameterNumberName":"U-component_of_WINDS"},"data":[0,0,0,0,0,0,0,0,0,0,0,0,0,0,0,0,0,0,0,0,0,0,0,0,0,0,0,0,0,0,0,0,0,0,0,0,0,0,0,0,0,0,0,0,0,0,0,0,0,0,0,0,0,0,0,0,0,0,-0.5415,-0.5415,0,-0.5477,-0.5478,-0.5479,-0.5457,-0.5455,-0.5454,-0.5453,-0.5519,-0.5522,-0.5525,0,0,0,0,0,0,0,0,0,0,0,0,0,-0.5277,-0.528,-0.5414,-0.5415,-0.5416,-0.5477,-0.5478,-0.5479,-0.5457,-0.5455,-0.5454,-0.5452,-0.5518,-0.5522,-0.5526,0,0,0,0,0,0,0,0,0,0,0,0,0,-0.5338,-0.528,-0.5414,-0.5412,-0.5413,-0.5477,-0.5478,-0.5479,-0.5457,-0.5455,-0.5453,-0.5451,-0.5517,-0.5521,-0.5526,-0.5596,0,0,-0.554,-0.5542,0,0,0,0,0,0,0,0,-0.5335,-0.5343,-0.5412,-0.5413,-0.5413,-0.5457,-0.5454,-0.5518,-0.5458,-0.5441,-0.5453,-0.545,-0.55,-0.5506,-0.5523,-0.5599,-0.5602,-0.5541,-0.5543,-0.5545,-0.5547,0,0,0,0,0,0,0,-0.533,-0.534,-0.5439,-0.5413,-0.5414,-0.5409,-0.5415,-0.5466,-0.5482,-0.5442,-0.5441,-0.5448,-0.55,-0.5518,-0.5524,-0.5603,-0.554,-0.5544,-0.5547,-0.5549,-0.574,-0.5742,0,0,0,0,0,0,-0.5325,-0.5337,-0.5437,-0.5441,-0.5368,-0.5413,-0.542,-0.5445,-0.5481,-0.5484,-0.545,-0.5447,-0.5511,-0.5519,-0.5526,-0.5611,-0.5545,-0.555,-0.5552,-0.5738,-0.574,-0.5743,0,0,0,0,0,0,-0.5323,-0.5335,-0.5435,-0.5389,-0.5401,-0.5418,-0.5446,-0.5448,-0.5465,-0.5487,-0.549,-0.5465,-0.551,-0.552,-0.5579,-0.5613,-0.5552,-0.5556,-0.5735,-0.5738,-0.5742,-0.5781,0,0,0,0,0,0,-0.5319,-0.5334,-0.5361,-0.5389,-0.5404,-0.5486,-0.5448,-0.545,-0.5473,-0.547,-0.5502,-0.5505,-0.5509,-0.5572,-0.5583,-0.5618,-0.5559,-0.5732,-0.5736,-0.5741,-0.5777,-0.5785,-0.5793,0,0,0,0,0,-0.5314,-0.537,-0.5362,-0.5374,-0.5437,-0.5488,-0.5496,-0.5499,-0.5476,-0.5503,-0.5517,-0.5504,-0.5607,-0.5578,-0.5591,-0.5628,-0.573,-0.5735,-0.574,-0.5773,-0.5784,-0.5792,0,0,0,0,0,0,-0.5346,-0.5374,-0.5365,-0.5432,-0.5458,-0.5484,-0.5519,-0.551,-0.5544,-0.5539,-0.5541,-0.5549,-0.561,-0.5624,-0.5592,-0.5697,-0.5665,-0.5673,-0.5686,-0.5696,-0.5704,-0.57,-0.5563,0,0,0,0,0,-0.536,-0.5399,-0.5421,-0.5478,-0.5491,-0.5503,-0.5525,-0.5524,-0.5552,-0.5563,-0.5581,-0.5608,-0.5646,-0.5671,-0.5708,-0.5778,-0.5785,-0.5809,-0.5817,-0.5824,-0.5831,-0.5869,-0.588,-0.576,-0.576,-0.576,0,0,-0.5392,-0.5411,-0.5436,-0.5485,-0.5505,-0.5545,-0.5512,-0.5556,-0.5586,-0.557,-0.5626,-0.564,-0.5671,-0.5735,-0.5765,-0.5749,-0.5865,-0.583,-0.5835,-0.5839,-0.5876,-0.5887,-0.5897,-0.5763,-0.5763,-0.5762,0,0,-0.5469,-0.5487,-0.5537,-0.5557,-0.5587,-0.5594,-0.5605,-0.5633,-0.5641,-0.5698,-0.5686,-0.5721,-0.5787,-0.581,-0.5829,-0.5913,-0.5903,-0.5924,-0.5967,-0.6004,-0.6014,-0.6022,-0.6053,-0.6063,-0.5931,-0.5931,-0.5932,0,-0.5504,-0.5564,-0.5563,-0.5608,-0.563,-0.5615,-0.5665,-0.5685,-0.5726,-0.5741,-0.5723,-0.5804,-0.5824,-0.5894,-0.5914,-0.593,-0.5944,-0.5922,-0.6012,-0.6021,-0.6028,-0.6058,-0.6069,-0.5934,-0.5934,-0.5933,-0.5933,0,-0.5606,-0.5647,-0.5684,-0.5722,-0.5748,-0.5795,-0.5802,-0.5828,-0.5824,-0.5833,-0.5891,-0.5913,-0.5954,-0.597,-0.5967,-0.6039,-0.6028,-0.6011,-0.5979,-0.6042,-0.607,-0.6081,-0.5938,-0.5937,-0.5936,-0.5935,0,0,-0.5708,-0.5744,-0.5757,-0.5775,-0.5805,-0.5838,-0.5884,-0.5922,-0.5945,-0.5973,-0.6012,-0.6067,-0.6051,-0.6073,-0.6072,-0.6105,-0.617,-0.6083,-0.6084,-0.61,-0.625,-0.6265,-0.6277,-0.6162,-0.6164,-0.6166,-0.6248,0,-0.5789,-0.587,-0.587,-0.5944,-0.5983,-0.5968,-0.6008,-0.6031,-0.604,-0.6074,-0.6084,-0.6123,-0.6098,-0.6112,-0.6143,-0.6155,-0.62,-0.6149,-0.62,-0.6202,-0.6194,-0.6292,-0.6307,-0.6384,-0.6259,-0.6261,-0.6262,0,-0.5895,-0.5925,-0.6003,-0.6028,-0.6044,-0.608,-0.6115,-0.6147,-0.6173,-0.6177,-0.6201,-0.6195,-0.6242,-0.6207,-0.6272,-0.6237,-0.6257,-0.6266,-0.6269,-0.6276,-0.6237,-0.6302,-0.6408,-0.642,-0.6279,-0.6277,-0.6276,0,-0.5963,-0.6023,-0.6077,-0.6092,-0.6122,-0.6148,-0.6161,-0.6185,-0.6208,-0.6238,-0.6253,-0.6288,-0.6308,-0.6335,-0.6339,-0.6313,-0.6405,-0.637,-0.641,-0.641,-0.6432,-0.6431,-0.6544,-0.6442,-0.6442,-0.6442,-0.6442,0,-0.6054,-0.6103,-0.6108,-0.6142,-0.6196,-0.6195,-0.6248,-0.626,-0.628,-0.6316,-0.6305,-0.6339,-0.6341,-0.6376,-0.6379,-0.6432,-0.6441,-0.6446,-0.6447,-0.6448,-0.6448,-0.6463,-0.6458,-0.6445,-0.6444,-0.6444,-0.6443,0,-0.614,-0.6145,-0.6204,-0.6226,-0.6233,-0.6272,-0.6291,-0.6324,-0.633,-0.6376,-0.6386,-0.6397,-0.6438,-0.6443,-0.649,-0.6492,-0.6557,-0.6551,-0.6548,-0.6548,-0.6588,-0.6585,-0.6717,-0.6734,-0.662,-0.6621,-0.6622,0,-0.6199,-0.6236,-0.6262,-0.6285,-0.6299,-0.6336,-0.6359,-0.6359,-0.6383,-0.6414,-0.6443,-0.6481,-0.6512,-0.6577,-0.659,-0.6625,-0.6621,-0.6665,-0.6627,-0.6627,-0.6623,-0.6622,-0.6626,-0.6673,-0.6674,-0.6675,-0.6676,0,-0.6304,-0.6304,-0.6337,-0.6371,-0.6398,-0.6425,-0.645,-0.6469,-0.6472,-0.6499,-0.654,-0.6564,-0.6611,-0.665,-0.6685,-0.6699,-0.6689,-0.6687,-0.6699,-0.6702,-0.6699,-0.6702,-0.657,-0.6685,-0.6684,-0.6684,-0.6683,-0.6683,-0.6379,-0.6411,-0.6434,-0.6471,-0.6489,-0.6512,-0.6544,-0.6553,-0.6587,-0.6625,-0.6622,-0.6667,-0.6691,-0.6736,-0.6753,-0.6787,-0.6773,-0.679,-0.6794,-0.6799,-0.6803,-0.6692,-0.6794,-0.6793,-0.6793,-0.6793,-0.6793,0,-0.6484,-0.6497,-0.6531,-0.6566,-0.6595,-0.658,-0.6607,-0.6632,-0.6671,-0.6694,-0.6724,-0.677,-0.6807,-0.6821,-0.6858,-0.6883,-0.6879,-0.6892,-0.6891,-0.6895,-0.6813,-0.68,-0.6895,-0.6895,-0.6895,-0.6895,-0.6895,-0.6895,-0.6542,-0.6595,-0.6598,-0.666,-0.6673,-0.6716,-0.6733,-0.6754,-0.6772,-0.6824,-0.6854,-0.6862,-0.6882,-0.6919,-0.6952,-0.6955,-0.697,-0.6986,-0.6987,-0.6911,-0.6901,-0.6891,-0.6879,-0.6988,-0.6988,-0.7066,-0.7066,-0.7067]},{"header":{"parameterUnit":"m.s-1","parameterCategory":1,"la1":30.2991,"la2":30.254,"lo1":-89.0895,"lo2":-89.0444,"dy":0.0017,"dx":0.0017,"nx":28,"ny":28,"refTime":"2025-01-07T03:00:00:Z","depth":0,"parameterNumber":3,"parameterNumberName":"V-component_of_WINDS"},"data":[0,0,0,0,0,0,0,0,0,0,0,0,0,0,0,0,0,0,0,0,0,0,0,0,0,0,0,0,0,0,0,0,0,0,0,0,0,0,0,0,0,0,0,0,0,0,0,0,0,0,0,0,0,0,0,0,0,0,-7.211,-7.2112,0,-7.2268,-7.2269,-7.2271,-7.2207,-7.2203,-7.2199,-7.2196,-7.2351,-7.2359,-7.2366,0,0,0,0,0,0,0,0,0,0,0,0,0,-7.1747,-7.1754,-7.211,-7.2112,-7.2114,-7.2267,-7.2269,-7.2272,-7.2207,-7.2203,-7.2198,-7.2194,-7.2349,-7.2358,-7.2367,0,0,0,0,0,0,0,0,0,0,0,0,0,-7.1904,-7.1756,-7.2109,-7.21,-7.2101,-7.2267,-7.227,-7.2272,-7.2208,-7.2203,-7.2197,-7.2192,-7.2346,-7.2357,-7.2368,-7.255,0,0,-7.2403,-7.2408,0,0,0,0,0,0,0,0,-7.1895,-7.1918,-7.21,-7.2101,-7.2103,-7.2212,-7.2198,-7.2365,-7.221,-7.2168,-7.2196,-7.2189,-7.2309,-7.2323,-7.2365,-7.2558,-7.2564,-7.2404,-7.2411,-7.2416,-7.2419,0,0,0,0,0,0,0,-7.1885,-7.191,-7.2172,-7.2102,-7.2104,-7.2086,-7.2103,-7.223,-7.2267,-7.2171,-7.2167,-7.2186,-7.2309,-7.2354,-7.2368,-7.2566,-7.2404,-7.2414,-7.2421,-7.2425,-7.2914,-7.292,0,0,0,0,0,0,-7.1874,-7.1902,-7.2167,-7.2177,-7.1983,-7.2097,-7.2116,-7.2182,-7.2266,-7.2273,-7.2191,-7.2183,-7.2337,-7.2355,-7.2373,-7.2591,-7.2416,-7.2426,-7.2433,-7.2908,-7.2916,-7.2922,0,0,0,0,0,0,-7.1867,-7.1899,-7.2161,-7.2038,-7.207,-7.211,-7.2185,-7.2188,-7.2234,-7.2281,-7.2287,-7.2231,-7.2333,-7.2357,-7.2507,-7.2595,-7.2432,-7.2442,-7.2901,-7.291,-7.2919,-7.3029,0,0,0,0,0,0,-7.1857,-7.1896,-7.1968,-7.204,-7.2077,-7.2294,-7.2191,-7.2196,-7.2254,-7.2245,-7.232,-7.2327,-7.2331,-7.249,-7.2518,-7.2608,-7.2451,-7.2893,-7.2905,-7.2916,-7.3017,-7.304,-7.306,0,0,0,0,0,-7.1844,-7.1991,-7.1972,-7.2004,-7.2168,-7.2299,-7.232,-7.2323,-7.2262,-7.2333,-7.2363,-7.2325,-7.2581,-7.2506,-7.2537,-7.2632,-7.2888,-7.2902,-7.2915,-7.3007,-7.3036,-7.306,0,0,0,0,0,0,-7.1926,-7.2001,-7.198,-7.2155,-7.2222,-7.2288,-7.2378,-7.2353,-7.2437,-7.2425,-7.2423,-7.244,-7.2595,-7.2628,-7.2543,-7.2811,-7.2725,-7.2745,-7.2784,-7.2812,-7.2833,-7.2821,-7.246,0,0,0,0,0,-7.1965,-7.2068,-7.2127,-7.2276,-7.231,-7.2339,-7.2396,-7.2393,-7.2461,-7.2488,-7.2529,-7.2595,-7.269,-7.2752,-7.2842,-7.3021,-7.3036,-7.3102,-7.3123,-7.3141,-7.3158,-7.3254,-7.3283,-7.2968,-7.2968,-7.2967,0,0,-7.2046,-7.2099,-7.2164,-7.2294,-7.2345,-7.2449,-7.2363,-7.2477,-7.2554,-7.2505,-7.2649,-7.2681,-7.2754,-7.2919,-7.2993,-7.2951,-7.3249,-7.3158,-7.3172,-7.318,-7.3271,-7.3301,-7.3327,-7.2977,-7.2975,-7.2974,0,0,-7.2246,-7.2298,-7.2428,-7.2481,-7.256,-7.2577,-7.2608,-7.2679,-7.2699,-7.2844,-7.2809,-7.2899,-7.3063,-7.3116,-7.3165,-7.3384,-7.3352,-7.3413,-7.3526,-7.3619,-7.3643,-7.3665,-7.3743,-7.377,-7.3431,-7.3431,-7.3431,0,-7.2336,-7.2495,-7.2497,-7.2615,-7.2672,-7.2633,-7.2763,-7.2814,-7.2917,-7.2957,-7.2908,-7.3113,-7.3159,-7.3335,-7.3389,-7.343,-7.3463,-7.3405,-7.364,-7.3662,-7.3683,-7.3756,-7.3785,-7.3438,-7.3437,-7.3436,-7.3436,0,-7.2601,-7.2711,-7.2806,-7.2909,-7.2976,-7.31,-7.3118,-7.3186,-7.3176,-7.3198,-7.3345,-7.3399,-7.3499,-7.3541,-7.3532,-7.3715,-7.3686,-7.364,-7.3552,-7.372,-7.3789,-7.3817,-7.3448,-7.3445,-7.3443,-7.3442,0,0,-7.2859,-7.2961,-7.2996,-7.3041,-7.3125,-7.3209,-7.3329,-7.3428,-7.3486,-7.3558,-7.3658,-7.3797,-7.3754,-7.3809,-7.3805,-7.3887,-7.4056,-7.383,-7.3831,-7.3869,-7.4259,-7.4294,-7.4327,-7.4035,-7.404,-7.4045,-7.4253,0,-7.3065,-7.3279,-7.3283,-7.3478,-7.3579,-7.3543,-7.3647,-7.3708,-7.3732,-7.3819,-7.3843,-7.3942,-7.3878,-7.3911,-7.399,-7.4019,-7.4134,-7.4004,-7.4125,-7.413,-7.4108,-7.4363,-7.4401,-7.4595,-7.428,-7.4285,-7.4288,0,-7.3335,-7.3418,-7.3623,-7.3691,-7.3734,-7.3828,-7.3918,-7.4003,-7.407,-7.4081,-7.4143,-7.4127,-7.4246,-7.4156,-7.432,-7.4231,-7.4281,-7.4302,-7.4309,-7.4321,-7.4219,-7.438,-7.4657,-7.4686,-7.4331,-7.4327,-7.4324,0,-7.3502,-7.3664,-7.3807,-7.3848,-7.3931,-7.3998,-7.4035,-7.4097,-7.4156,-7.4235,-7.4273,-7.4363,-7.4413,-7.4482,-7.449,-7.4424,-7.4655,-7.4565,-7.4665,-7.4665,-7.4716,-7.4712,-7.5003,-7.4749,-7.4748,-7.4748,-7.4747,0,-7.3732,-7.3859,-7.3883,-7.3972,-7.4112,-7.4114,-7.4252,-7.4284,-7.4339,-7.4431,-7.4405,-7.4491,-7.4496,-7.4584,-7.4591,-7.4725,-7.4747,-7.4758,-7.4758,-7.476,-7.4759,-7.4792,-7.4779,-7.4755,-7.4754,-7.4752,-7.4751,0,-7.3942,-7.3964,-7.4117,-7.4184,-7.4203,-7.4303,-7.4359,-7.4442,-7.4462,-7.4579,-7.4606,-7.4637,-7.4739,-7.4754,-7.4873,-7.4877,-7.5038,-7.5024,-7.5016,-7.5014,-7.5113,-7.5103,-7.5435,-7.5479,-7.5196,-7.5199,-7.5201,0,-7.4087,-7.4184,-7.4261,-7.4321,-7.4363,-7.4461,-7.4521,-7.4526,-7.459,-7.4674,-7.4746,-7.4846,-7.4926,-7.509,-7.5122,-7.5212,-7.5199,-7.531,-7.5213,-7.5212,-7.52,-7.5194,-7.5203,-7.5328,-7.5331,-7.5334,-7.5336,0,-7.4342,-7.4348,-7.4438,-7.4531,-7.4604,-7.4677,-7.4746,-7.4796,-7.481,-7.4882,-7.4987,-7.505,-7.5171,-7.527,-7.5359,-7.5394,-7.5367,-7.5366,-7.5394,-7.5397,-7.5388,-7.5393,-7.5066,-7.5359,-7.5356,-7.5355,-7.5353,-7.5352,-7.4524,-7.4608,-7.4675,-7.4775,-7.4827,-7.4892,-7.4973,-7.5004,-7.5092,-7.5193,-7.519,-7.5305,-7.5368,-7.5485,-7.5527,-7.5615,-7.5579,-7.5619,-7.563,-7.5639,-7.5649,-7.5375,-7.5631,-7.5631,-7.563,-7.5629,-7.5629,0,-7.4777,-7.4819,-7.4911,-7.5008,-7.5086,-7.5056,-7.513,-7.5196,-7.5298,-7.536,-7.544,-7.5559,-7.5654,-7.5694,-7.5786,-7.5849,-7.5839,-7.5873,-7.5868,-7.5876,-7.5676,-7.5643,-7.588,-7.588,-7.588,-7.588,-7.5879,-7.5879,-7.4918,-7.5058,-7.5072,-7.5237,-7.5276,-7.5391,-7.5435,-7.5494,-7.5543,-7.5679,-7.5758,-7.5784,-7.5836,-7.5932,-7.6017,-7.6025,-7.606,-7.61,-7.6103,-7.5916,-7.5891,-7.5866,-7.5835,-7.6108,-7.6108,-7.6296,-7.6297,-7.6299]}]]